Home   Weather   Skiathos   Past weeks
Flag for Greece

Past Weather in Skiathos, Greece — Yesterday and Last 2 Weeks

Now
45 °F

Passing clouds.


Feels Like: 45 °F
Forecast: 60 / 56 °F
Wind: No wind

Location: Anchialos Airport

Current Time: Dec 13, 2019 at 5:16:21 am

Latest Report: Dec 13, 2019 at 2:50 am


Visibility: N/A

Pressure: 29.68 "Hg

Humidity: 93%

Dew Point: 43 °F

Location of SkiathosLocation

Past Weather in Skiathos — Graph

°F

Skiathos Temperature Yesterday

Maximum temperature yesterday: 57 °F (at 2:50 pm)
Minimum temperature yesterday: 43 °F (at 8:50 pm)
Average temperature yesterday: 50 °F

High & Low Weather Summary for the Past Weeks

 TemperatureHumidityPressure
High72 °F (Nov 29, 1:20 pm)100% (Nov 28, 6:20 am)30.42 "Hg (Nov 28, 6:20 am)
Low37 °F (Dec 2, 5:50 am)36% (Nov 29, 2:20 pm)29.68 "Hg (Dec 13, 12:50 am)
Average50 °F81%30.04 "Hg
* Reported Nov 28 2:50 am — Dec 13 2:50 am, Skiathos. Weather by CustomWeather, © 2019

Note: Actual official high and low records may vary slightly from our data, if they occured in-between our weather recording intervals... More about our weather records

Skiathos Weather History for the Previous 24 Hours

Scroll right to see more
 ConditionsComfort  
Time TempWeatherWind HumidityBarometerVisibility
2:50 am
Fri, Dec 13
45 °FPassing clouds.No wind93%29.68 "HgN/A
1:50 am45 °FPassing clouds.No wind93%29.68 "HgN/A
12:50 am45 °FPassing clouds.No wind93%29.68 "HgN/A
11:50 pm
Thu, Dec 12
45 °FPassing clouds.No wind93%29.71 "HgN/A
10:50 pm45 °FPassing clouds.5 mph93%29.71 "HgN/A
9:50 pm43 °FPassing clouds.5 mph93%29.71 "HgN/A
8:50 pm43 °FPassing clouds.No wind93%29.71 "HgN/A
7:50 pm45 °FPassing clouds.5 mph93%29.71 "HgN/A
7:20 pm46 °FPassing clouds.5 mph93%29.71 "HgN/A
6:50 pm46 °FPassing clouds.5 mph93%29.71 "HgN/A
6:20 pm48 °FPassing clouds.5 mph87%29.71 "HgN/A
5:50 pm52 °FPassing clouds.No wind82%29.71 "HgN/A
5:20 pm52 °FPassing clouds.No wind77%29.71 "HgN/A
4:50 pm54 °FScattered clouds.No wind72%29.71 "HgN/A
4:20 pm54 °FPassing clouds.No wind77%29.71 "HgN/A
3:50 pm55 °FPassing clouds.No wind72%29.71 "HgN/A
3:20 pm55 °FPassing clouds.5 mph67%29.71 "HgN/A
2:50 pm57 °FPassing clouds.5 mph63%29.71 "HgN/A
2:20 pm55 °FPassing clouds.7 mph63%29.71 "HgN/A
1:50 pm55 °FPassing clouds.7 mph63%29.71 "HgN/A
1:20 pm55 °FScattered clouds.6 mph63%29.74 "HgN/A
12:50 pm55 °FScattered clouds.7 mph67%29.74 "HgN/A
12:20 pm54 °FScattered clouds.9 mph72%29.74 "HgN/A
11:50 am52 °FBroken clouds.9 mph77%29.77 "HgN/A
11:20 am52 °FBroken clouds.8 mph72%29.77 "HgN/A
10:50 am50 °FBroken clouds.9 mph76%29.77 "HgN/A
10:20 am50 °FBroken clouds.8 mph82%29.77 "HgN/A
9:50 am50 °FBroken clouds.7 mph76%29.77 "HgN/A
9:20 am48 °FBroken clouds.7 mph82%29.77 "HgN/A
8:50 am48 °FBroken clouds.7 mph82%29.77 "HgN/A
7:50 am46 °FBroken clouds.6 mph87%29.74 "HgN/A
7:20 am48 °FPartly cloudy.7 mph82%29.74 "HgN/A
6:50 am48 °FPartly cloudy.7 mph82%29.74 "HgN/A
6:20 am46 °FPartly cloudy.6 mph87%29.71 "HgN/A
5:50 am46 °FPartly cloudy.6 mph87%29.74 "HgN/A
5:20 am46 °FPartly cloudy.3 mph87%29.74 "HgN/A
Weather by CustomWeather, © 2019

See weather overview

Advertising